#timestamp,LO_Frequency,Hit 
1498708815.4,286047024.8,N
1498708835.2,286047022.4,N
1498708855.1,286047023.1,N
1498708856.0,286047023.1,N
1498708875.8,286047022.2,N
1498708895.6,286047025.6,N
1498708915.5,286047024.1,N
1498708935.3,286047024.1,N
1498708955.1,286047026.5,N
1498708975.8,286047025.0,N
1498708995.7,286047022.5,N
1498709015.5,286047026.3,N
1498709035.3,286047025.9,N
1498709055.2,286047026.5,N
1498709075.9,286047023.8,N
1498709095.7,286047022.7,N
1498709115.6,286047022.3,N
1498709135.4,286047022.9,N
1498709155.2,286047025.0,N
1498709175.1,286047026.7,N
1498709176.0,286047026.7,N
1498709195.8,286047022.4,N
1498709215.6,286047024.3,N
1498709235.5,286047025.6,N
1498709255.3,286047029.3,N
1498709275.1,286047031.5,N
1498709295.8,286047032.9,N
1498709315.7,286047032.0,N
1498709335.5,286047032.9,N
1498709355.3,286047031.8,N
1498709375.2,286047033.7,N
1498709395.0,286047035.8,N
1498709395.9,286047035.8,N
1498709415.7,286047033.6,N
1498709435.6,286047036.1,N
1498709455.4,286047035.6,N
1498709475.2,286047035.8,N
1498709495.1,286047035.0,N
1498709496.0,286047035.0,N
1498709515.8,286047037.1,N
1498709535.6,286047036.5,N
1498709555.5,286047037.2,N
1498709575.3,286047035.8,N
1498709595.1,286047037.9,N
1498709615.9,286047037.7,N
1498709635.7,286047038.8,Y
1498709655.5,286047012.3,N
1498709675.4,286047008.3,N
1498709695.2,286047010.3,N
1498709715.0,286047012.4,N
1498709715.9,286047012.4,N
1498709735.8,286047011.2,N
1498709755.6,286047011.3,N
1498709775.4,286047011.4,N
1498709795.2,286047011.0,N
1498709815.1,286047012.7,N
1498709816.0,286047012.7,N
1498709835.8,286047014.5,N
1498709855.6,286047015.1,N
1498709875.5,286047016.5,N
1498709895.3,286047018.8,N
1498709915.1,286047016.0,N
1498709935.9,286047016.2,N
1498709955.7,286047014.5,N
1498709975.5,286047015.0,N
1498709995.4,286047013.5,N
1498710015.2,286047013.2,N
1498710035.0,286047012.5,N
1498710035.9,286047012.5,N
1498710055.8,286047015.6,N
1498710075.6,286047013.3,N
1498710095.4,286047015.4,N
1498710115.2,286047013.9,N
1498710135.1,286047011.8,N
1498710136.0,286047011.8,N
1498710155.8,286047013.9,N
1498710175.6,286047011.6,N
1498710195.5,286047011.6,N
1498710215.3,286047012.0,N
1498710235.1,286047012.1,N
1498710255.9,286047013.2,N
1498710275.7,286047013.0,N
1498710295.6,286047011.3,N
1498710315.4,286047010.1,N
1498710335.2,286047011.8,N
1498710355.1,286047011.4,N
1498710356.0,286047011.4,N
1498710375.8,286047010.3,N
1498710395.6,286047006.3,N
1498710415.5,286047006.2,N
1498710435.3,286047006.1,N
1498710455.1,286047009.6,N
1498710475.8,286047013.9,N
1498710495.7,286047013.1,N
1498710515.5,286047013.3,N
1498710535.3,286047015.6,N
1498710555.2,286047013.0,N
1498710575.9,286047013.1,N
1498710595.7,286047012.0,N
1498710615.6,286047011.5,N
1498710635.4,286047012.0,N
1498710655.2,286047012.0,N
1498710675.1,286047011.4,N
1498710676.0,286047011.4,N
1498710695.8,286047012.7,N
1498710715.6,286047013.8,N
1498710735.5,286047012.3,N
1498710755.3,286047009.6,N
1498710775.1,286047010.3,N
1498710795.9,286047012.7,N
1498710815.7,286047014.8,N
1498710835.5,286047014.9,N
1498710855.3,286047014.7,N
1498710875.2,286047016.3,N
1498710895.0,286047017.4,N
1498710895.9,286047017.4,N
1498710915.7,286047019.2,N
1498710935.6,286047021.1,N
1498710955.4,286047023.4,N
1498710975.2,286047022.9,N
1498710995.1,286047021.0,N
1498710996.0,286047021.0,N
1498711015.8,286047022.6,N
1498711035.6,286047025.2,N
1498711055.5,286047020.7,N
1498711075.3,286047023.1,N
1498711095.1,286047025.0,N
1498711115.9,286047022.8,N
1498711135.7,286047024.9,N
1498711155.5,286047022.2,N
1498711175.3,286047024.7,N
1498711195.2,286047025.0,N
1498711215.0,286047024.0,N
1498711215.9,286047024.0,N
1498711235.7,286047025.5,N
1498711255.6,286047028.3,N
1498711275.4,286047028.3,N
1498711295.2,286047026.6,N
1498711315.1,286047028.4,N
1498711316.0,286047028.4,N
1498711335.8,286047025.5,N
1498711355.6,286047028.0,N
1498711375.5,286047027.2,N
1498711395.3,286047029.6,N
1498711415.1,286047026.2,N
1498711435.9,286047025.0,N
1498711455.7,286047024.4,N
1498711475.5,286047024.0,N
1498711495.3,286047023.6,N
1498711515.2,286047021.0,N
1498711535.0,286047022.4,N
1498711535.9,286047022.4,N
1498711555.7,286047021.6,N
1498711575.6,286047019.9,N
1498711595.4,286047017.9,N
1498711615.2,286047016.1,N
1498711635.1,286047016.6,N
1498711636.0,286047016.6,N
1498711655.8,286047016.9,N
1498711675.6,286047016.9,N
1498711695.5,286047014.3,N
1498711715.3,286047017.2,N
1498711735.1,286047016.4,N
1498711755.9,286047014.1,N
1498711775.7,286047013.3,N
1498711795.5,286047013.6,N
1498711815.4,286047010.5,N
1498711835.2,286047012.2,N
1498711855.0,286047015.5,N
1498711855.9,286047015.5,N
1498711875.8,286047016.6,N
1498711895.6,286047014.3,N
1498711915.4,286047014.7,N
1498711935.2,286047016.7,N
1498711955.1,286047016.4,N
1498711956.0,286047016.4,N
1498711975.8,286047014.1,N
1498711995.6,286047013.1,N
1498712015.5,286047013.4,N
1498712035.3,286047012.1,N
1498712055.1,286047013.9,N
1498712075.9,286047014.0,N
1498712095.7,286047013.7,N
1498712115.5,286047013.3,N
1498712135.4,286047013.8,N
1498712155.2,286047012.9,N
1498712175.0,286047014.5,N
1498712175.9,286047014.5,N
1498712195.8,286047013.1,N
1498712215.6,286047012.9,N
1498712235.4,286047013.7,N
1498712255.3,286047012.7,N
1498712275.1,286047011.0,N
1498712276.0,286047011.0,N
1498712295.8,286047010.9,N
1498712315.7,286047013.1,N
1498712335.5,286047013.3,N
1498712355.3,286047013.4,N
1498712375.1,286047011.3,N
1498712395.9,286047011.2,N
